Simultaneous Nadir Overpasses (SNOs) Predictions

Prediction of SNOs between LANDSAT-8 and TERRA Satellite Orbit:

Table of predicted SNOs for the next 14.0 days since TLE Epoch: 8/25/2023
Index Date (LANDSAT-8) Time (LANDSAT-8) Lat,Lon (LANDSAT-8) SZA (LANDSAT-8 ) Date (TERRA) Time (TERRA) Lat,Lon (TERRA) SZA (TERRA ) Distance(km) Time Diff (sec)
1 09/07/2023 12:20:11 -81.46,-105.09 97.41 09/07/2023 12:21:20 -81.46,-105.12 97.37 0.59 69
2 09/07/2023 13:09:38 81.47, 62.32 82.58 09/07/2023 13:10:43 81.47, 62.42 82.63 1.67 65
3 09/07/2023 13:59:04 -81.46,-129.79 97.38 09/07/2023 14:00:04 -81.46,-129.73 97.33 1.10 60
4 09/07/2023 14:48:30 81.45, 38.01 82.66 09/07/2023 14:49:26 81.44, 38.20 82.72 3.36 56
5 09/07/2023 15:37:57 -81.46,-154.50 97.35 09/07/2023 15:38:48 -81.45,-154.33 97.30 2.80 51
6 09/07/2023 16:27:22 81.43, 13.69 82.75 09/07/2023 16:28:10 81.44, 13.59 82.76 1.74 48
7 09/07/2023 17:16:48 -81.42,-178.42 97.21 09/07/2023 17:17:31 -81.43,-178.56 97.21 2.27 43
8 09/07/2023 18:06:15 81.43, -11.01 82.77 09/07/2023 18:06:54 81.43, -11.01 82.80 0.12 39
9 09/07/2023 18:55:41 -81.42, 156.87 97.18 09/07/2023 18:56:15 -81.42, 156.84 97.17 0.58 34
10 09/07/2023 19:45:07 81.41, -35.33 82.86 09/07/2023 19:45:37 81.41, -35.24 82.89 1.66 30
11 09/07/2023 20:34:33 -81.40, 132.55 97.10 09/07/2023 20:34:58 -81.40, 132.61 97.08 1.12 25
12 09/07/2023 21:24:00 81.41, -60.04 82.88 09/07/2023 21:24:21 81.40, -59.85 82.93 3.35 21
13 09/07/2023 22:13:26 -81.40, 107.84 97.07 09/07/2023 22:13:42 -81.39, 108.00 97.04 2.81 16
14 09/07/2023 23:02:51 81.37, -83.97 83.02 09/07/2023 23:03:04 81.38, -84.07 83.02 1.75 13
15 09/07/2023 23:52:18 -81.38, 83.52 96.99 09/07/2023 23:52:26 -81.39, 83.39 97.00 2.26 8
16 09/08/2023 00:41:44 81.37,-108.68 83.05 09/08/2023 00:41:48 81.37,-108.68 83.05 0.06 4
17 09/08/2023 01:31:10 -81.36, 59.20 96.91 09/08/2023 01:31:09 -81.36, 59.16 96.91 0.57 1
18 09/08/2023 02:20:37 81.37,-133.39 83.08 09/08/2023 02:20:32 81.37,-133.29 83.09 1.64 5



Historial Predications of SNOs between LANDSAT-8 and TERRA
